Regional Weather Roundup
Issued by NWS Grand Forks, ND

Home | Current Version | Previous Version | Text Only | Print | Product List | Glossary On
Versions: 1 2 3 4 5 6 7 8 9 10 11 12 13 14 15 16 17 18 19 20 21 22 23 24 25 26 27 28 29 30 31 32 33 34 35 36 37 38 39 40 41 42 43 44 45 46 47 48 49 50
000
ASUS43 KFGF 032331
RWRFGF
PRAIRIE TO PINES  WEATHER ROUNDUP
NATIONAL WEATHER SERVICE EASTERN NORTH DAKOTA/GRAND FORKS ND
600 PM CDT WED JUN 03 2015

 **SATELLITE DATA USED TO AUGMENT SKY COVER AT AUTOMATED STATIONS**
 *****  WEATHER ACROSS EASTERN NORTH DAKOTA  *****

CITY           SKY/WX    TMP DP  RH WIND       PRES   REMARKS
GRAND FORKS    LGT RAIN  55  54  96 N18G24    29.91R FOG
GRAND FRKS AFB HVY RAIN  54  52  94 N15G21    29.93S
GRAND FRKS NWS   N/A     54 N/A N/A VRB15       N/A
DEVILS LAKE    CLOUDY    59  43  55 N17       29.98S
FARGO          CLOUDY    58  54  86 NW14      29.89R
WAHPETON ARPT  CLOUDY    61  54  77 NW8       29.90S
$$

 ***** WEATHER ACROSS CENTRAL AND WESTERN NORTH DAKOTA  *****

CITY           SKY/WX    TMP DP  RH WIND       PRES   REMARKS
BISMARCK       SUNNY     64  48  56 N15       30.00R
MINOT          SUNNY     63  41  44 N15       30.01F
JAMESTOWN      CLOUDY    58  52  80 N18       29.94R
MINOT AFB      SUNNY     63  41  44 NE14      30.00F
GARRISON         N/A     65  40  39 NE12      30.00F
WILLISTON      SUNNY     70  43  37 NE12      30.00F
DICKINSON      SUNNY     65  44  46 NE12      29.99F
HETTINGER      MOSUNNY   68  48  48 NE12      30.00S
$$

 *****  OTHER AIRPORT OBSERVATIONS IN OUR AREA  *****

CITY           SKY/WX    TMP DP  RH WIND       PRES   REMARKS
WALHALLA       FAIR      63  39  42 MISG      29.98R
GRAFTON AIRPOR RAIN      54  54 100 N14G22    29.95R
VALLEY CITY AR CLOUDY    55  55 100 N14       29.94R FOG
CANDO          CLOUDY    55  41  58 N14       30.02S
CAVALIER APRT  CLOUDY    61  46  59 NE10      29.96S
GWINNER        NOT AVBL
SHEYENNE NWR     N/A     62  54  74 N8        29.95
ROLLA          CLOUDY    55  43  62 N15       30.04R
 ***** THE ABOVE OBSERVATIONS ARE NON NWS ARE NOT QUALITY
       CONTROLLED AND MAY MIS-REPORT RAIN FOR SNOW...
$$

  *****  WEATHER ACROSS NORTHERN MINNESOTA  *****

CITY           SKY/WX    TMP DP  RH WIND       PRES   REMARKS
FLAG ISLAND    CLOUDY    63  55  77 N7        29.90S
WARROAD        DRIZZLE   59  55  88 NE12      29.91S
ROSEAU         DRIZZLE   59  54  82 N7        29.91S
HALLOCK        LGT RAIN  57  52  82 N14G21    29.93S
THF RVR FALLS  CLOUDY    61  59  94 N12       29.89R
BAUDETTE       LGT RAIN  61  59  93 NE9       29.88R FOG
WASKISH        CLOUDY    64  61  88 E6        29.86S
CROOKSTON      DRIZZLE   61  61 100 N13       29.89R
STEPHEN NDAWN    N/A     57  55  94 N13         N/A
GREENBUSH NDAW   N/A     61  57  88 N13         N/A
$$
  *****  WEATHER ACROSS CENTRAL AND WEST MINNESOTA  *****

CITY           SKY/WX    TMP DP  RH WIND       PRES   REMARKS
FOSSTON        DRIZZLE   63  61  94 CALM      29.86S
BEMIDJI        RAIN      63  62  98 CALM      29.85S
PARK RAPIDS    CLOUDY    65  60  84 W9        29.87R
ELBOW LAKE     CLOUDY    61  57  86 NW10      29.89S
WADENA         CLOUDY    63  59  88 W8        29.88R
DETROIT LAKES  CLOUDY    59  57  94 W6        29.89F FOG
MOORHEAD       CLOUDY    57  55  94 NW12      29.90R FOG
FERGUS FALLS   CLOUDY    61  61 100 W8        29.89F
MORRIS MN      SUNNY     66  59  77 NW12      29.87F
STAPLES        CLOUDY    72  61  68 W10       29.86S
$$
  *****  WEATHER ELSEWHERE ACROSS MINNESOTA  *****

CITY           SKY/WX    TMP DP  RH WIND       PRES   REMARKS
DULUTH         CLOUDY    61  59  93 CALM      29.88F FOG
INTRNTL FALLS  CLOUDY    61  60  97 E8        29.88S FOG
ELY            CLOUDY    61  57  88 CALM      29.90S
CLOQUET        CLOUDY    61  59  94 SE5       29.88S FOG
WHEATON        CLOUDY    63  55  77 NW6       29.91S
BRAINERD       LGT RAIN  63  62  97 SW6       29.86F
HIBBING        CLOUDY    62  60  93 CALM      29.89R
ALEXANDRIA     CLOUDY    65  59  81 W13       29.89S
SAINT CLOUD    CLOUDY    63  62  97 NW5       29.86F
MINNEAPOLIS    RAIN      65  63  93 NW9       29.83R FOG
$$

  *****  WEATHER ACROSS SOUTH DAKOTA  *****

CITY           SKY/WX    TMP DP  RH WIND       PRES   REMARKS
SIOUX FALLS    MOSUNNY   78  60  53 NW8       29.87F
BROOKINGS      MOSUNNY   75  61  60 W3        29.88F
WATERTOWN      SUNNY     71  58  63 N10       29.90S
HURON          SUNNY     75  58  55 NW12      29.89S
SISSETON         N/A     67  58  72 N8        29.89S
ABERDEEN       CLOUDY    71  57  61 NW9       29.91S
MITCHELL       MOSUNNY   78  59  51 NW10      29.90S
PIERRE         SUNNY     74  56  53 N7        29.93S
MOBRIDGE       SUNNY     70  50  49 N15G22    29.93F
RAPID CITY     MOSUNNY   68  55  63 E6        30.00S
$$

  *****  SOME WEATHER IN NEARBY STATES *****

CITY           SKY/WX    TMP DP  RH WIND       PRES   REMARKS
GLASGOW MT     MOSUNNY   68  49  50 E8        29.94F
GREAT FALLS MT MOSUNNY   68  45  43 E12       29.89F
CHEYENNE WY    MOSUNNY   69  53  56 SE15G28   30.01F
SCOTTSBLUFF NE MOSUNNY   78  56  46 SE17      29.93F
OMAHA NE       PTSUNNY   79  62  56 SE3       29.89S
DES MOINES IA  CLOUDY    77  64  64 S10       29.88F
DAVENPORT IA   PTSUNNY   79  56  45 S12       29.91F
CHICAGO IL     CLOUDY    75  53  46 S8        29.96F
EAU CLAIRE WI  CLOUDY    65  62  90 E7        29.88F
LA CROSSE WI   CLOUDY    77  59  53 SE12      29.85F
$$

  *****  SOME NATIONAL WEATHER *****

CITY           SKY/WX    TMP DP  RH WIND       PRES   REMARKS
LA GUARDIA NY  PTSUNNY   62  49  62 S13       30.19R
RALEIGH NC     LGT RAIN  65  63  93 NE10      30.05S FOG
ATLANTA GA     PTSUNNY   74  66  76 SE8       29.94F
NEW ORLEANS LA MOSUNNY   87  60  40 NE7       29.88F
OKLAHOMA CITY  MOSUNNY   86  66  51 S16G24    29.86F
ALBUQUERQUE NM MOSUNNY   87  22   9 SE6       29.94F
SALT LAKE CITY CLOUDY    76  43  30 N10       29.78F
LOS ANGELES CA MOSUNNY   67  56  67 W13       29.89F
BOISE ID       PTSUNNY   74  36  25 N10G18    29.87F
SEATTLE WA     PTSUNNY   67  49  52 NW5       30.05F
$$

*** WEATHER ACROSS MANITOBA...SASKATCHEWAN AND ONTARIO ***
                ***ONTARIO***

CITY           SKY/WX    TMP DP  RH WIND       PRES   REMARKS
GERALDTON      CLOUDY    61  57  88 NW5       29.95S
THUNDER BAY    CLOUDY    55  48  76 E13       29.93R
SIOUX LOOKOUT  CLOUDY    68  43  40 NE3       29.93R
TORONTO        MOSUNNY   64  41  42 E10       30.13S
BIG TROUT LK   MOSUNNY   61  41  48 N6        30.01R
PICKLE LAKE    PTSUNNY   66  37  34 N5        29.95S
DRYDEN         CLOUDY    66  48  52 NE8       29.92S
KENORA         CLOUDY    64  45  48 NE7       29.93S
$$
                *** MANITOBA***

CITY           SKY/WX    TMP DP  RH WIND       PRES   REMARKS
BRANDON        PTSUNNY   63  36  36 NE9       30.03F
DAUPHIN        CLOUDY    63  34  34 NE10      30.05F
ISLAND LAKE    MOSUNNY   64  41  42 N3        30.03S
PILOT MOUND      N/A     57  41  54 N13         N/A
THE PAS        PTSUNNY   68  21  17 N8        30.06S
THOMPSON       MOSUNNY   64  39  39 NW12      30.06S
WINNIPEG       PTSUNNY   66  32  28 NE14      29.97F
LYNN LAKE      SUNNY     63  28  27 NE8       30.10S
CHURCHILL      CLOUDY    39  34  81 N9        30.11R
GILLAM         PTSUNNY   54  41  62 N12       30.08R
$$
                ***SASKATCHEWAN***

CITY           SKY/WX    TMP DP  RH WIND       PRES   REMARKS
ESTEVAN        MOSUNNY   66  36  32 E10       30.03S
KINDERSLEY     PTSUNNY   64  43  45 SE22G29   29.97F
LLOYDMINSTER   PTSUNNY   70  23  17 SE17      29.97F
PRINCE ALBERT  MOSUNNY   70  28  21 SE9       30.02F
REGINA         CLOUDY    66  34  30 S5        30.02F
YORKTON        MOSUNNY   66  32  28 E7        30.05S
N. BATTLEFORD  SUNNY     70  28  21 E14G21    30.01S
LA RONGE       MOSUNNY   68  28  22 NE12      30.05S
SASKATOON      PTSUNNY   68  34  28 S8        30.03S
SWIFT CURRENT  PTSUNNY   64  52  63 SE20      29.95F
$$
NOTE: THESE ARE AUTOMATED STATIONS WITH LIMITED QUALITY CONTROL
      "FAIR" INDICATES FEW OR NO CLOUDS BELOW 12,000 FEET WITH NO
      SIGNIFICANT WEATHER AND/OR OBSTRUCTIONS TO VISIBILITY.
      SKY/WX - SKY CONDITION AND SIGNIFICANT WEATHER.
      TMP - AIR TEMPERATURE.    DP   - DEWPOINT TEMPERATURE.
      RH  - RELATIVE HUMIDITY.  PRES - PRESSURE.
      HX  - HEAT INDEX.         WCI  - WIND CHILL INDEX.
$


USA.gov is the U.S. government's official web portal to all federal, state and local government web resources and services.